Voltar ao catálogo

JCSAT 16

AtivoComunicaçõesGEO
NORAD 41729·PAYLOAD·🇯🇵 Japan

Lançado Aug 14, 2016 de Cape Canaveral Space Force Station

Loading…

TLE

AtualizadoSource: Space-Track

Época: Sep 14, 2026, 10:33 UTC

1 41729U 16050A   26257.44003122 -.00000259  00000-0  00000-0 0  9990
2 41729   0.0192 157.4981 0001007   7.6071 130.6828  1.00271249 36969

Acompanhe JCSAT 16 em tempo real com AllMySat

Download on the App Store